Temp
-5 -6 -6 -6 -6 -6 -6 -7 -6 -5 -5 -5 -5 -6 -4 -5 -6 -6 -5 -4 -5 -5 -5 -6 -6 -6 -6 -7 -7 -7 -7 -7 -7 -7 -7 -7 -7 -7 -7 -7 -7 -7 -7 -7 -7 -6 -7 -7 -7
-5 -6 -6 -6 -6 -6 -7 -7 -6 -5 -5 -5 -5 -5 -5 -5 -5 -5 -5 -5 -5 -5 -6 -6 -6 -6 -7 -7 -7 -7 -7 -6 -6 -6 -6 -6 -7 -7 -7 -8 -8 -8 -8 -8 -8 -8 -7 -7 -7
-6 -6 -6 -6 -6 -6 -7 -5 -5 -5 -6 -5 -5 -5 -5 -5 -5 -5 -5 -6 -6 -6 -6 -5 -6 -6 -6 -6 -6 -6 -6 -6 -6 -6 -6 -6 -7 -7 -8 -8 -8 -8 -8 -8 -8 -8 -8 -8 -8
-6 -6 -6 -6 -6 -6 -6 -5 -5 -5 -5 -5 -5 -5 -5 -5 -5 -5 -6 -6 -6 -6 -5 -5 -6 -6 -6 -6 -6 -6 -6 -6 -6 -6 -6 -6 -7 -7 -8 -8 -8 -8 -8 -8 -8 -8 -8 -7 -7
-6 -6 -6 -6 -7 -7 -5 -6 -6 -5 -5 -5 -5 -5 -5 -5 -5 -5 -6 -5 -5 -5 -5 -5 -6 -6 -6 -6 -6 -6 -6 -6 -6 -6 -6 -6 -7 -7 -8 -7 -7 -7 -7 -7 -8 -7 -7 -7 -7
-6 -5 -7 -6 -7 -7 -6 -7 -7 -6 -5 -5 -5 -5 -5 -5 -5 -5 -5 -5 -5 -5 -5 -5 -6 -6 -6 -6 -6 -6 -6 -6 -6 -6 -6 -6 -7 -7 -7 -7 -8 -8 -8 -8 -8 -8 -8 -8 -8
-6 -4 -6 -6 -7 -7 -7 -7 -7 -5 -5 -4 -4 -4 -4 -4 -5 -4 -4 -5 -5 -5 -5 -5 -5 -5 -5 -5 -5 -6 -6 -6 -6 -6 -6 -6 -6 -7 -7 -7 -8 -8 -8 -8 -8 -8 -7 -8 -8
-6 -5 -7 -7 -7 -7 -6 -6 -6 -5 -5 -5 -4 -4 -4 -4 -4 -4 -4 -5 -4 -5 -5 -5 -5 -5 -5 -5 -5 -6 -6 -6 -7 -7 -7 -6 -7 -7 -7 -7 -7 -7 -7 -8 -8 -8 -8 -8 -7
-6 -5 -7 -7 -7 -6 -7 -6 -6 -6 -5 -4 -4 -4 -4 -4 -4 -4 -4 -4 -4 -5 -5 -5 -5 -5 -5 -5 -5 -6 -6 -6 -6 -7 -7 -7 -7 -7 -7 -8 -8 -8 -8 -8 -8 -8 -8 -8 -8
-6 -6 -7 -8 -7 -6 -7 -7 -7 -5 -5 -4 -4 -4 -4 -4 -4 -4 -4 -4 -5 -5 -5 -5 -5 -5 -6 -6 -6 -6 -6 -6 -7 -7 -7 -8 -8 -8 -8 -8 -8 -8 -8 -8 -8 -8 -8 -8 -8
-6 -8 -8 -8 -7 -6 -7 -6 -6 -8 -7 -4 -4 -4 -4 -4 -4 -4 -4 -4 -4 -5 -5 -5 -5 -5 -6 -6 -6 -6 -7 -7 -7 -8 -8 -8 -7 -7 -7 -8 -8 -8 -8 -9 -8 -9 -8 -9 -9
-7 -8 -8 -8 -6 -7 -7 -7 -6 -8 -5 -5 -5 -4 -4 -4 -5 -5 -4 -4 -5 -5 -5 -5 -5 -5 -6 -6 -6 -7 -7 -7 -7 -7 -7 -8 -8 -8 -8 -9 -8 -8 -8 -8 -8 -9 -9 -9 -9
-7 -8 -9 -8 -6 -7 -7 -7 -7 -5 -5 -6 -5 -5 -4 -4 -5 -5 -5 -5 -5 -5 -5 -5 -6 -6 -6 -6 -7 -7 -7 -7 -7 -8 -8 -8 -8 -8 -8 -7 -8 -8 -7 -8 -8 -8 -9 -9 -9
-7 -7 -9 -8 -7 -7 -7 -8 -8 -6 -5 -6 -6 -5 -5 -5 -5 -5 -5 -5 -5 -5 -6 -6 -6 -6 -6 -7 -7 -7 -7 -7 -8 -8 -8 -8 -8 -8 -8 -8 -8 -8 -8 -8 -8 -8 -8 -9 -9
-7 -8 -8 -9 -8 -7 -7 -7 -7 -7 -6 -6 -5 -6 -6 -5 -5 -5 -5 -6 -6 -6 -6 -6 -6 -7 -7 -7 -7 -7 -7 -7 -7 -8 -8 -9 -9 -8 -8 -8 -9 -8 -8 -8 -8 -8 -8 -8 -8
-6 -7 -7 -8 -8 -8 -7 -7 -7 -7 -7 -7 -5 -5 -6 -6 -6 -6 -6 -6 -6 -6 -6 -6 -6 -7 -7 -7 -7 -7 -7 -7 -7 -8 -8 -8 -8 -9 -9 -9 -9 -9 -8 -9 -9 -8 -8 -8 -9
-5 -6 -7 -8 -8 -8 -7 -8 -8 -7 -7 -7 -6 -6 -6 -6 -7 -7 -7 -6 -6 -6 -6 -6 -7 -7 -7 -7 -7 -7 -7 -7 -7 -7 -7 -8 -7 -7 -8 -9 -9 -9 -9 -9 -9 -9 -9 -9 -9
-6 -6 -7 -8 -8 -7 -8 -8 -8 -7 -8 -7 -6 -6 -6 -7 -7 -7 -7 -7 -7 -7 -7 -7 -7 -7 -7 -7 -7 -7 -7 -7 -7 -7 -7 -7 -7 -7 -7 -8 -9 -9 -9 -9 -9 -9 -9 -9 -10
-7 -8 -8 -8 -8 -8 -7 -8 -8 -7 -7 -7 -7 -6 -7 -7 -7 -8 -8 -7 -8 -8 -7 -8 -7 -7 -7 -7 -7 -7 -7 -7 -8 -7 -7 -7 -7 -8 -8 -8 -9 -9 -9 -10 -10 -9 -9 -10 -9
-7 -8 -8 -8 -8 -8 -8 -7 -8 -7 -7 -8 -8 -8 -7 -7 -7 -8 -8 -8 -8 -8 -8 -8 -8 -7 -8 -7 -7 -8 -7 -7 -7 -8 -8 -8 -8 -9 -9 -9 -9 -10 -10 -10 -10 -10 -9 -10 -10
-7 -7 -7 -8 -8 -8 -8 -7 -7 -8 -8 -8 -8 -8 -8 -8 -7 -8 -8 -9 -8 -8 -8 -8 -8 -8 -8 -8 -8 -8 -8 -8 -8 -8 -8 -9 -9 -9 -9 -10 -9 -9 -9 -9 -10 -10 -10 -9 -9
-7 -7 -7 -8 -8 -8 -8 -7 -7 -8 -8 -9 -9 -9 -8 -9 -10 -9 -7 -8 -9 -8 -8 -8 -9 -9 -9 -8 -9 -8 -8 -8 -8 -8 -8 -8 -9 -10 -9 -10 -9 -9 -9 -9 -10 -10 -9 -10 -9
-7 -8 -9 -9 -7 -9 -8 -8 -7 -8 -8 -8 -8 -9 -9 -9 -9 -10 -9 -7 -8 -9 -9 -9 -9 -9 -9 -9 -9 -9 -9 -9 -9 -8 -8 -9 -9 -9 -10 -10 -9 -9 -9 -9 -10 -10 -10 -10 -10
-8 -8 -8 -7 -7 -8 -7 -8 -8 -8 -8 -8 -8 -9 -9 -9 -9 -9 -10 -9 -8 -8 -8 -9 -9 -9 -9 -9 -9 -9 -9 -9 -9 -9 -9 -9 -9 -9 -9 -10 -9 -9 -10 -10 -10 -10 -10 -10 -10
-8 -8 -8 -8 -8 -7 -7 -7 -7 -7 -8 -8 -9 -9 -9 -9 -9 -9 -10 -10 -9 -8 -8 -8 -9 -9 -9 -9 -9 -9 -9 -9 -9 -9 -9 -9 -9 -9 -9 -9 -10 -9 -10 -10 -10 -10 -10 -10 -10
-8 -9 -9 -9 -8 -8 -8 -8 -8 -8 -8 -8 -9 -8 -8 -9 -9 -9 -9 -9 -9 -8 -8 -8 -8 -9 -9 -9 -9 -9 -10 -10 -10 -9 -10 -9 -9 -9 -9 -10 -9 -10 -10 -10 -10 -10 -10 -10 -10
-10 -10 -9 -9 -9 -8 -8 -8 -8 -8 -8 -8 -9 -8 -9 -9 -10 -9 -9 -9 -9 -9 -9 -9 -8 -7 -10 -11 -10 -10 -10 -10 -10 -10 -9 -9 -9 -9 -9 -10 -9 -9 -10 -10 -10 -10 -10 -10 -11
-10 -11 -11 -10 -10 -9 -9 -8 -8 -8 -9 -9 -10 -9 -10 -10 -10 -8 -9 -9 -9 -9 -9 -9 -8 -8 -9 -9 -9 -9 -9 -8 -10 -9 -9 -9 -9 -9 -8 -9 -10 -10 -10 -11 -10 -10 -11 -11 -12
-10 -10 -10 -10 -10 -10 -9 -8 -8 -9 -9 -10 -10 -10 -10 -8 -8 -8 -8 -9 -9 -9 -9 -9 -9 -10 -10 -9 -9 -8 -9 -10 -10 -10 -8 -10 -9 -9 -9 -9 -10 -10 -11 -11 -11 -11 -11 -12 -12
-11 -11 -11 -11 -10 -10 -9 -9 -10 -10 -10 -11 -10 -9 -10 -8 -7 -7 -8 -8 -8 -9 -9 -10 -10 -9 -10 -10 -10 -11 -10 -10 -10 -10 -10 -10 -10 -10 -10 -10 -10 -10 -11 -11 -11 -12 -12 -12 -13
Height
5906 5907 5907 5907 5905 5905 5910 5909 5904 5900 5899 5898 5896 5894 5894 5893 5892 5894 5893 5893 5892 5893 5893 5893 5893 5892 5890 5889 5889 5889 5888 5886 5885 5884 5882 5881 5880 5878 5877 5876 5875 5874 5873 5873 5872 5872 5871 5871 5871
5906 5907 5908 5907 5904 5904 5912 5906 5904 5903 5901 5900 5898 5895 5894 5895 5893 5893 5894 5894 5893 5893 5892 5892 5892 5892 5891 5890 5889 5888 5886 5885 5884 5883 5882 5881 5879 5878 5877 5876 5875 5874 5873 5872 5871 5871 5871 5870 5870
5907 5907 5908 5906 5905 5905 5910 5906 5904 5902 5901 5900 5899 5897 5897 5896 5895 5895 5895 5894 5893 5892 5892 5892 5893 5892 5891 5891 5890 5889 5887 5886 5884 5883 5881 5880 5879 5878 5878 5877 5876 5875 5874 5873 5872 5871 5871 5871 5871
5908 5908 5909 5905 5909 5908 5911 5907 5904 5900 5900 5899 5899 5898 5897 5896 5895 5895 5894 5893 5892 5892 5893 5893 5893 5892 5891 5891 5891 5890 5888 5886 5885 5883 5882 5881 5880 5879 5878 5878 5878 5877 5875 5874 5873 5873 5872 5871 5871
5908 5909 5906 5905 5917 5915 5914 5909 5904 5901 5900 5899 5899 5898 5897 5896 5895 5894 5893 5892 5892 5893 5894 5894 5894 5893 5892 5892 5892 5891 5890 5887 5884 5884 5884 5883 5881 5880 5879 5879 5879 5878 5877 5875 5874 5873 5872 5872 5871
5907 5906 5908 5899 5911 5917 5913 5910 5905 5904 5902 5900 5898 5898 5897 5896 5895 5895 5893 5892 5893 5894 5894 5894 5894 5893 5893 5893 5892 5891 5890 5889 5887 5885 5884 5883 5881 5880 5879 5879 5878 5877 5876 5875 5875 5875 5874 5872 5871
5908 5907 5910 5912 5919 5916 5915 5910 5910 5906 5905 5902 5899 5898 5898 5896 5896 5896 5894 5893 5893 5894 5894 5894 5894 5894 5894 5893 5893 5892 5890 5890 5887 5886 5885 5884 5882 5881 5880 5878 5877 5877 5877 5876 5875 5875 5874 5873 5872
5911 5907 5908 5913 5917 5918 5915 5912 5910 5908 5906 5903 5901 5899 5898 5898 5897 5896 5894 5893 5894 5895 5895 5895 5894 5894 5895 5894 5893 5893 5892 5890 5889 5887 5885 5885 5884 5882 5881 5880 5878 5877 5876 5876 5875 5875 5874 5874 5873
5911 5910 5913 5918 5926 5919 5914 5910 5909 5908 5907 5904 5902 5902 5900 5899 5897 5897 5895 5894 5894 5895 5895 5895 5895 5895 5894 5894 5893 5893 5892 5891 5889 5887 5886 5885 5885 5884 5882 5881 5880 5878 5876 5875 5874 5874 5873 5873 5872
5910 5909 5915 5921 5922 5919 5916 5912 5909 5907 5906 5905 5904 5903 5901 5900 5899 5898 5896 5895 5894 5895 5895 5895 5895 5895 5895 5894 5893 5893 5892 5890 5888 5886 5885 5884 5883 5884 5882 5881 5879 5877 5876 5876 5874 5872 5871 5871 5870
5908 5908 5917 5918 5918 5920 5913 5912 5913 5907 5905 5905 5905 5904 5902 5901 5900 5899 5898 5897 5896 5896 5895 5896 5895 5895 5895 5894 5893 5892 5892 5891 5888 5886 5886 5885 5884 5882 5881 5880 5879 5877 5876 5875 5873 5872 5870 5868 5867
5906 5907 5914 5914 5914 5918 5919 5912 5911 5909 5906 5905 5905 5904 5903 5902 5901 5900 5899 5899 5898 5897 5896 5896 5896 5896 5895 5894 5893 5892 5892 5890 5889 5887 5885 5883 5882 5881 5879 5878 5878 5877 5875 5874 5873 5872 5869 5870 5868
5904 5906 5912 5911 5913 5915 5917 5912 5910 5908 5907 5906 5905 5904 5904 5903 5902 5901 5900 5899 5899 5897 5897 5897 5896 5895 5894 5894 5893 5892 5891 5889 5888 5886 5885 5883 5881 5880 5879 5878 5877 5875 5873 5872 5872 5869 5869 5867 5866
5904 5905 5908 5911 5911 5913 5914 5915 5912 5906 5906 5906 5905 5905 5904 5903 5902 5901 5900 5900 5899 5898 5898 5896 5896 5894 5893 5892 5892 5891 5889 5889 5887 5885 5883 5881 5880 5878 5876 5874 5873 5871 5871 5871 5870 5869 5866 5864 5862
5899 5903 5904 5908 5909 5910 5912 5912 5911 5907 5905 5906 5905 5904 5904 5903 5902 5901 5900 5899 5898 5898 5897 5896 5895 5893 5892 5891 5890 5889 5888 5887 5885 5884 5881 5877 5876 5874 5873 5872 5871 5871 5870 5869 5867 5866 5865 5863 5860
5897 5899 5901 5905 5907 5910 5910 5911 5908 5901 5904 5905 5905 5903 5902 5902 5901 5901 5899 5898 5897 5897 5896 5895 5894 5892 5890 5890 5889 5888 5887 5885 5883 5881 5879 5875 5873 5871 5869 5867 5867 5866 5865 5865 5865 5864 5863 5861 5860
5895 5897 5900 5904 5909 5909 5908 5908 5904 5891 5895 5901 5903 5902 5901 5900 5899 5898 5897 5896 5896 5896 5896 5894 5892 5891 5890 5889 5889 5887 5885 5883 5881 5880 5878 5875 5874 5871 5867 5866 5864 5862 5861 5860 5861 5859 5858 5857 5856
5893 5896 5898 5905 5909 5907 5909 5907 5903 5899 5898 5898 5901 5900 5899 5898 5897 5896 5895 5894 5894 5894 5894 5892 5891 5890 5888 5888 5887 5886 5884 5882 5880 5879 5877 5875 5872 5870 5867 5864 5862 5860 5859 5857 5856 5855 5854 5852 5850
5889 5895 5899 5903 5908 5906 5905 5905 5904 5896 5894 5898 5895 5897 5897 5896 5895 5893 5893 5893 5893 5893 5892 5891 5890 5888 5886 5885 5884 5883 5881 5879 5877 5876 5874 5871 5869 5866 5864 5863 5860 5858 5856 5854 5853 5851 5850 5849 5847
5886 5890 5894 5899 5904 5903 5901 5902 5906 5895 5897 5897 5896 5891 5892 5894 5892 5892 5891 5891 5891 5891 5890 5890 5889 5887 5885 5883 5882 5880 5878 5877 5875 5873 5871 5870 5867 5864 5862 5860 5856 5853 5851 5852 5850 5848 5847 5845 5844
5883 5885 5888 5893 5899 5897 5896 5898 5899 5899 5898 5895 5895 5897 5888 5887 5889 5890 5890 5889 5889 5888 5887 5886 5886 5885 5883 5881 5880 5878 5876 5874 5872 5871 5869 5863 5863 5862 5859 5856 5855 5852 5849 5849 5845 5845 5842 5841 5840
5878 5883 5885 5887 5891 5893 5892 5892 5892 5895 5897 5894 5892 5890 5889 5890 5883 5881 5885 5887 5887 5885 5884 5883 5881 5881 5879 5878 5876 5874 5873 5870 5867 5867 5864 5858 5856 5856 5857 5851 5850 5848 5846 5845 5842 5841 5839 5838 5835
5875 5877 5880 5882 5884 5886 5889 5886 5889 5892 5892 5891 5890 5889 5889 5888 5887 5881 5875 5880 5883 5881 5879 5879 5877 5875 5874 5872 5870 5869 5868 5866 5864 5862 5860 5853 5850 5846 5844 5845 5847 5843 5840 5839 5837 5836 5834 5833 5832
5868 5871 5874 5876 5878 5878 5882 5883 5884 5888 5888 5887 5884 5883 5881 5883 5884 5885 5877 5869 5873 5877 5876 5873 5872 5871 5868 5868 5864 5865 5862 5859 5858 5857 5854 5851 5846 5841 5836 5838 5839 5837 5834 5831 5829 5827 5825 5825 5823
5862 5867 5870 5873 5873 5874 5879 5877 5877 5881 5882 5883 5880 5876 5876 5880 5880 5882 5878 5869 5864 5866 5870 5868 5868 5865 5865 5864 5862 5859 5858 5853 5846 5848 5847 5842 5842 5839 5836 5830 5826 5827 5826 5822 5821 5820 5819 5816 5815
5858 5862 5865 5870 5873 5877 5876 5875 5876 5876 5875 5874 5874 5873 5872 5873 5869 5871 5872 5872 5859 5857 5858 5858 5860 5861 5858 5857 5855 5855 5846 5847 5840 5837 5835 5831 5828 5825 5822 5820 5814 5815 5816 5815 5814 5813 5810 5807 5805
5854 5856 5861 5862 5864 5866 5871 5873 5875 5874 5872 5870 5867 5868 5864 5863 5862 5864 5865 5863 5860 5851 5847 5847 5840 5843 5852 5846 5842 5844 5839 5832 5831 5830 5829 5829 5824 5823 5815 5811 5807 5807 5809 5808 5806 5803 5801 5798 5796
5848 5854 5856 5858 5860 5861 5866 5870 5869 5866 5865 5864 5864 5864 5859 5857 5854 5854 5858 5857 5852 5851 5847 5845 5831 5843 5826 5843 5835 5830 5822 5822 5825 5821 5818 5819 5817 5814 5807 5775 5796 5800 5801 5799 5796 5793 5789 5787 5785
5844 5847 5848 5852 5854 5856 5861 5865 5861 5860 5859 5857 5856 5856 5851 5847 5844 5847 5844 5847 5849 5849 5847 5841 5833 5827 5829 5831 5829 5822 5822 5822 5819 5816 5803 5809 5812 5808 5810 5800 5796 5794 5792 5789 5787 5783 5778 5777 5776
5840 5844 5844 5846 5851 5851 5852 5855 5858 5849 5852 5850 5848 5848 5847 5840 5835 5838 5835 5833 5839 5842 5841 5838 5832 5828 5825 5822 5822 5820 5816 5815 5812 5811 5808 5804 5801 5797 5794 5792 5789 5787 5783 5779 5774 5770 5767 5764 5763
Wind_Speed
7 10 14 14 21 22 13 7 7 9 6 5 4 2 4 7 8 12 6 8 5 4 4 4 4 4 5 7 7 6 6 6 7 7 8 8 9 8 8 8 8 7 6 6 5 5 5 5 5
9 12 18 11 12 19 4 15 8 7 6 5 5 3 3 5 6 5 1 3 3 4 4 5 4 6 8 8 7 7 6 7 7 8 9 10 11 10 9 7 7 7 7 8 7 6 4 3 2
8 11 5 4 15 21 5 14 10 9 7 7 6 1 6 3 3 3 2 2 3 4 5 6 8 10 10 9 8 7 7 9 10 12 13 14 13 12 10 10 12 13 13 14 13 12 11 9 8
11 13 15 17 18 13 18 15 14 15 9 11 7 2 2 1 1 3 3 4 4 6 7 9 9 10 11 10 7 6 8 12 13 13 13 13 14 14 13 13 14 15 14 13 13 12 11 10 9
23 10 10 19 11 13 16 14 13 11 8 8 3 3 1 0 1 3 4 5 7 8 10 10 10 11 11 8 7 5 8 11 12 12 13 13 15 14 12 13 14 15 15 15 13 11 12 12 13
17 12 7 10 13 11 22 14 11 7 7 3 2 2 0 2 2 3 5 8 9 10 10 9 9 9 9 8 7 7 9 10 11 12 13 16 17 16 13 12 13 14 15 13 13 12 14 15 16
11 8 7 7 5 10 4 19 8 7 4 5 2 3 4 4 3 3 7 10 10 10 9 8 8 8 9 10 10 9 9 10 11 12 12 14 16 15 13 13 14 15 14 13 12 11 11 14 14
9 13 8 18 8 14 16 24 10 13 8 7 6 5 5 4 3 3 7 10 9 7 7 7 7 8 9 9 10 10 10 11 12 12 12 13 14 14 12 12 13 13 14 12 10 10 12 14 16
13 23 7 7 7 17 18 14 10 12 9 8 8 5 6 3 2 2 6 9 7 6 5 5 6 6 6 8 9 10 10 10 10 11 11 11 11 11 10 10 8 7 8 8 8 7 8 11 12
21 17 8 6 15 6 6 19 15 14 6 6 7 7 6 5 2 1 3 6 7 5 3 3 4 3 5 8 9 8 8 8 8 7 9 9 10 6 9 7 5 5 6 5 4 4 4 5 6
21 19 1 15 26 12 17 19 3 10 11 9 7 7 6 6 6 5 4 3 3 3 2 1 2 4 6 7 7 7 8 8 7 8 6 4 2 4 3 5 6 6 5 6 5 6 5 1 4
24 15 4 13 17 17 2 23 10 12 7 13 8 6 6 7 7 7 5 4 2 1 0 2 4 5 6 8 9 8 8 8 8 8 8 7 7 6 7 8 7 7 8 7 7 7 7 8 6
23 16 9 13 9 14 6 15 19 5 6 11 8 6 6 6 7 8 7 6 4 3 3 4 5 6 8 9 10 10 11 12 13 13 13 11 11 11 11 9 8 9 7 7 7 4 7 9 9
15 18 11 16 10 14 13 14 14 5 6 9 8 4 6 8 7 8 9 8 7 7 7 6 8 9 11 12 12 13 14 15 16 17 18 17 15 14 14 14 13 12 10 10 9 7 8 10 9
18 17 19 15 13 11 10 17 19 7 10 7 7 2 7 11 11 9 10 11 12 10 10 10 10 10 13 15 16 17 17 18 20 20 19 21 19 17 17 16 16 14 13 13 13 13 11 11 9
13 15 19 13 13 11 11 8 25 21 9 12 10 7 5 8 12 12 13 13 14 14 13 13 13 13 13 15 17 19 19 20 21 20 20 18 19 19 18 19 18 18 17 14 13 15 15 13 11
16 14 11 11 14 13 8 11 23 25 15 18 17 10 8 8 10 11 13 13 15 16 16 17 17 14 14 15 16 15 16 20 19 17 18 19 18 20 21 22 21 16 17 19 19 18 16 16 17
14 12 12 9 18 21 14 13 21 18 21 28 21 9 9 10 11 12 12 13 11 13 13 16 15 14 17 17 15 15 16 17 19 20 21 20 19 20 21 19 17 16 17 18 20 21 23 20 19
14 6 9 15 10 23 20 14 18 20 15 24 33 22 12 13 11 15 16 12 13 13 12 15 17 18 14 13 14 15 17 18 20 20 22 21 22 20 17 13 15 20 19 17 15 19 21 21 23
21 23 30 19 16 23 24 19 15 24 26 22 17 27 22 17 16 14 18 17 13 14 16 16 16 14 13 13 15 18 18 19 21 22 25 27 27 23 17 17 14 15 15 17 17 20 22 18 20
25 27 25 23 15 29 32 25 20 23 26 27 20 24 23 32 21 19 18 20 20 17 16 17 17 18 19 19 19 21 22 24 25 25 25 26 26 25 21 20 21 19 19 18 18 20 22 20 20
25 22 23 24 23 17 27 28 21 20 29 28 30 28 24 24 30 33 19 18 21 23 20 20 21 18 20 22 24 25 22 24 29 29 31 32 32 28 24 19 21 23 23 23 22 23 24 22 24
26 22 14 21 32 23 23 30 18 15 21 27 34 23 27 25 24 32 40 22 20 24 26 24 22 23 22 24 26 27 28 32 36 36 34 38 37 41 27 25 26 23 23 23 25 26 26 25 26
31 29 28 28 26 29 28 29 26 21 25 23 29 29 23 21 21 24 37 43 34 23 26 27 27 25 27 29 32 31 35 38 41 40 45 45 42 47 39 33 32 29 27 28 29 29 31 32 32
34 29 27 28 28 29 23 25 26 21 29 27 28 28 19 20 17 23 28 41 46 34 27 27 28 32 31 31 33 36 39 41 46 44 49 53 54 54 42 46 34 31 30 30 30 31 34 34 35
27 29 27 16 15 14 15 22 19 19 14 29 32 35 39 39 30 33 30 31 43 40 39 41 31 29 33 32 33 40 45 43 49 51 56 61 54 49 49 48 32 31 33 33 35 38 38 38 39
18 17 17 27 27 27 19 10 13 14 20 22 30 22 10 16 14 21 30 38 30 39 41 41 46 43 42 33 38 41 42 47 45 53 59 59 42 44 38 36 23 34 32 38 41 45 45 44 44
27 15 14 19 18 19 16 14 20 19 18 13 6 3 9 22 31 27 23 37 45 43 40 39 49 54 24 56 38 47 45 46 48 56 54 35 41 28 28 23 30 32 38 40 44 51 53 53 51
17 27 25 21 20 17 12 14 20 14 17 16 16 18 20 32 39 30 30 29 33 37 34 40 49 52 51 48 41 35 42 44 44 48 48 47 46 36 34 38 43 36 41 47 52 56 60 58 55
15 19 16 15 13 22 27 25 10 22 13 15 18 30 26 48 52 42 34 31 26 31 34 38 44 46 49 38 37 37 42 42 46 47 47 49 47 44 37 41 39 45 46 50 52 56 60 60 54
Wind_Direction
114 100 96 91 86 80 73 335 261 336 358 357 351 292 359 192 282 246 9 79 66 48 37 38 29 17 37 52 44 33 18 358 343 331 322 322 329 335 331 331 335 340 344 339 332 320 299 291 291
120 110 97 58 82 96 86 277 357 348 325 319 294 283 97 117 93 102 121 88 63 42 44 38 48 81 80 63 45 26 12 6 356 353 350 350 354 352 355 3 23 25 18 20 21 27 15 359 334
130 121 129 91 53 72 297 311 334 318 301 299 300 276 121 123 140 147 138 112 69 61 52 75 92 84 68 50 37 39 39 39 34 28 21 18 18 24 28 42 47 45 44 49 48 45 41 35 26
123 119 92 38 29 46 281 340 347 332 297 284 302 217 127 124 183 165 148 101 67 75 91 96 88 75 63 50 44 48 51 59 43 30 30 31 38 48 50 50 47 46 46 39 38 31 31 27 20
135 153 117 130 121 283 327 322 318 324 316 288 291 191 145 282 192 181 121 91 89 102 106 101 92 83 73 57 47 49 49 56 49 43 43 46 57 59 55 50 43 39 34 31 33 42 41 35 33
141 174 8 120 97 301 328 353 336 352 342 346 58 125 76 57 105 134 108 96 102 109 107 104 99 86 73 60 61 64 59 54 55 56 53 51 59 66 63 56 46 37 36 37 41 41 42 41 44
166 124 92 103 44 315 276 316 336 308 340 343 50 77 63 74 88 115 102 102 108 111 106 102 94 88 76 70 74 73 69 62 66 61 57 58 63 65 61 47 42 44 42 43 52 45 38 34 34
170 86 47 11 53 295 283 303 337 352 11 18 27 53 50 72 92 119 110 106 113 121 109 94 88 80 80 68 68 67 65 63 56 55 56 55 58 65 63 56 51 45 40 44 42 33 19 16 15
143 112 94 213 258 278 302 296 7 349 345 1 15 22 43 62 102 149 126 119 127 119 106 87 77 87 78 74 67 61 60 58 58 53 47 57 57 48 61 68 56 54 53 43 39 32 33 15 11
155 107 30 178 202 230 269 304 311 345 358 1 14 360 23 19 5 264 185 153 143 131 108 85 85 65 52 63 60 58 51 49 55 54 50 41 44 42 33 37 46 41 28 18 24 357 28 23 356
156 100 18 253 223 215 257 280 329 343 320 20 6 360 13 14 358 322 284 221 163 143 131 95 76 50 39 27 32 34 35 31 18 25 36 15 338 9 17 348 358 350 352 343 331 323 314 310 334
180 141 198 252 222 210 176 276 306 259 345 357 346 351 3 7 356 330 314 300 279 264 321 338 350 9 3 3 360 358 1 354 351 343 343 349 340 347 331 324 320 328 347 327 344 305 317 328 321
191 187 235 229 207 196 192 284 290 278 31 5 355 345 360 352 338 324 315 308 290 282 294 316 325 336 337 339 338 334 331 330 332 332 325 325 321 327 317 309 297 306 315 319 327 316 350 340 328
198 197 170 253 222 210 207 242 279 302 6 32 16 360 360 348 317 311 309 304 292 289 297 303 310 319 320 323 322 321 322 322 326 326 320 312 308 312 312 315 320 306 307 303 307 311 299 310 322
199 221 190 208 233 227 214 197 260 248 356 353 353 359 360 10 346 304 296 296 293 292 295 301 305 308 313 315 317 321 325 330 331 328 319 309 305 300 303 307 316 305 299 302 304 301 289 293 304
205 208 214 229 225 238 233 223 232 240 278 331 326 348 6 353 358 334 301 283 286 291 289 295 301 302 308 312 314 320 329 329 330 328 327 319 308 300 295 292 296 300 300 305 307 301 301 295 290
199 200 215 203 264 234 267 202 262 268 255 304 307 326 340 336 350 343 333 298 287 290 295 295 299 305 312 312 316 318 324 325 324 330 330 326 326 313 303 302 305 297 301 304 302 301 297 298 295
218 202 198 206 221 267 231 255 267 266 256 300 301 314 331 331 336 349 349 343 308 300 297 298 303 310 310 314 314 316 319 323 326 318 323 321 321 319 311 312 309 310 312 313 305 300 296 291 292
197 255 281 216 233 268 263 230 261 239 229 296 304 309 326 320 327 329 339 345 345 315 307 308 315 318 315 315 313 318 318 320 313 316 309 315 318 318 313 320 321 313 313 312 311 313 313 300 303
203 192 222 210 199 244 259 227 226 284 288 281 286 297 311 305 312 313 312 322 321 308 300 301 318 320 332 330 331 330 328 322 319 309 311 310 311 307 301 304 309 317 315 322 299 304 311 303 310
221 217 223 201 208 237 248 246 220 233 269 271 275 285 273 308 298 310 292 298 306 307 305 302 298 302 305 309 313 318 325 322 320 320 316 306 303 299 303 303 304 306 295 311 299 298 303 291 290
238 237 236 210 208 238 276 268 250 240 237 251 271 287 285 293 293 304 298 286 289 295 309 298 297 301 305 302 308 313 320 318 319 318 317 305 304 278 298 305 298 301 294 296 302 306 298 290 294
239 226 229 246 224 232 241 272 245 247 253 278 268 259 252 278 285 294 305 295 287 287 294 298 293 298 298 302 303 308 316 316 315 315 316 310 305 301 295 297 290 290 287 287 291 295 298 297 293
235 236 243 248 255 252 256 249 254 247 273 279 275 278 272 269 259 273 287 291 295 278 286 290 293 297 297 299 302 308 313 311 310 310 305 301 299 298 279 276 281 284 285 287 286 291 290 294 295
241 241 247 255 261 269 280 284 289 276 236 262 272 282 270 270 263 258 264 283 284 292 283 281 289 292 294 301 304 307 309 306 303 305 303 298 300 295 294 272 262 273 280 285 286 287 288 290 291
248 243 243 242 257 268 251 278 305 298 282 248 254 260 281 274 253 240 252 249 279 291 288 288 287 279 283 286 296 304 303 302 299 300 301 304 312 294 283 287 262 270 278 283 282 283 286 284 287
217 254 250 243 226 238 248 251 251 251 257 270 266 268 307 278 298 254 254 259 263 283 290 297 298 277 273 265 309 300 296 289 298 294 304 304 306 309 286 279 285 278 279 281 285 285 285 284 282
215 196 236 236 251 256 253 257 271 253 231 250 275 263 280 265 256 262 259 248 253 263 277 284 288 291 293 309 304 291 285 286 304 302 307 293 315 311 297 261 292 288 290 288 290 290 284 280 282
224 218 227 209 209 234 236 238 229 245 269 256 227 220 241 269 273 266 265 259 255 259 273 278 284 292 298 303 298 303 300 310 310 305 300 310 311 305 293 287 296 294 294 296 293 291 287 286 285
201 212 209 230 249 231 228 209 257 286 243 246 249 255 274 269 273 273 270 263 256 256 263 270 278 286 293 297 298 300 305 305 300 299 297 306 304 300 293 292 296 299 292 293 290 287 287 285 285